Weather Service Report


840 
ASUS45 KTFX 230810
RWRMT 
Montana Regional Weather Roundup
National Weather Service Great Falls MT
200 AM MDT THU SEP 23 2021

NOTE: "FAIR" indicates few or no clouds below 12,000 feet with no
significant weather and/or obstructions to visibility.

MTZ001>007-043-230900-
West of the divide
  
CITY           SKY/WX    TMP DP  RH WIND       PRES   REMARKS
Kalispell      CLEAR     43  39  86 CALM      30.12R                  
Missoula       CLEAR     49  39  68 N7        30.16R                  
Butte          MOCLDY    44  35  70 SE5       30.21R                  
Anaconda         N/A     55  30  38 W6        30.20S                  
Deer Lodge       N/A     52  34  50 CALM      30.22R                  
Hamilton       CLOUDY    50  39  66 SE3       30.18S                  
Mullan Pass    PTCLDY    43  36  76 VRB5      30.24R                  
Plains           N/A     46  36  66 MISG      30.15R                  
Thompson Falls   N/A     46  41  81 CALM      30.20R                  
$$

MTZ008-052>055-230900-
Southwest Montana
  
CITY           SKY/WX    TMP DP  RH WIND       PRES   REMARKS
Bozeman        PTCLDY    57  40  52 SW7       30.13S                  
Dillon         PTCLDY    55  35  47 W5        30.15S                  
Three Forks      N/A     57  36  44 MISG      30.11R                  
Twin Bridges   CLOUDY    61  32  33 N12       30.15S                  
W Yellowstone  PTCLDY    34  30  86 CALM      30.21F                  
$$

MTZ009-010-012-014-046-048-049-054-230900-
East Slopes and Central Montana
  
CITY           SKY/WX    TMP DP  RH WIND       PRES   REMARKS
Cut Bank       CLEAR     50  35  56 W13       30.04R                  
Great Falls    PTCLDY    55  33  43 SW10      30.05R                  
Helena         PTCLDY    62  34  35 W8        30.13R                  
Malmstrom AFB  PTCLDY    60  34  37 W12       30.06R                  
Augusta        FAIR      54  32  43 W8        30.09R                  
Bowmans Corner FAIR      51  33  50 NW5       30.10R                  
Choteau          N/A     61  34  36 W15       30.05R                  
Raynesford     FAIR      57  32  39 SW7       30.07R                  
White Sulphur    N/A     57  32  38 W9        30.14R                  
$$

MTZ011-013-016-021-045-047-050-051-230900-
North Central Montana
  
CITY           SKY/WX    TMP DP  RH WIND       PRES   REMARKS
Havre          CLEAR     57  34  41 SW9       29.95R                  
Lewistown      CLOUDY    57  33  40 SW9       30.06R                  
Fort Benton      N/A     61  34  36 S5        30.01R                  
Grass Range    FAIR      59  31  34 W16       30.00R                  
N Bar Ranch    FAIR      61  30  31 NW17      30.04S                  
Roy            FAIR      56  35  46 W18       30.00R                  
Stanford       FAIR      54  31  40 W8        30.07R                  
Winifred       FAIR      57  31  36 SW9       30.03R                  
$$

MTZ017>020-022>027-061-062-230900-
Northeast Montana
  
CITY           SKY/WX    TMP DP  RH WIND       PRES   REMARKS
Glasgow        CLEAR     54  34  46 W8        29.88R                  
Glendive       CLEAR     55  35  47 CALM      29.87S                  
Jordan           N/A     55  30  38 W9        29.94R                  
Malta          CLEAR     48  36  61 CALM      29.90R                  
Plentywood     CLEAR     57  28  33 CALM      29.82S                  
Poplar           N/A     52  34  50 W6        29.85R                  
Scobey           N/A     54  30  40 CALM      29.85R                  
Sidney         CLEAR     46  37  71 CALM      29.84S                  
Wolf Point     CLEAR     51  34  52 SW9       29.86R                  
$$

MTZ028>42-056>058-230900-
Southcentral and southeast Montana
  
CITY           SKY/WX    TMP DP  RH WIND       PRES   REMARKS
Baker          CLEAR     57  33  40 VRB5      29.90S                  
Big Timber     MOCLDY    64  34  32 W23G29    30.09S                  
Billings       MOCLDY    61  29  29 SW12      30.03R                  
Hardin         PTSUNNY   50  32  50 W5        29.96S                  
Harlowton      MOCLDY    58  31  35 W15       30.08S                  
Laurel           N/A     64  27  24 NW9       30.03R                  
Livingston     MOCLDY    64  36  35 VRB3      30.11F                  
Miles City     CLEAR     50  34  54 NW10      29.89R                  
$$

Regional Reports...Dakotas/MN
  
CITY           SKY/WX    TMP DP  RH WIND       PRES   REMARKS
Williston      MOSUNNY   58  32  37 S10       29.83S                  
Minot          CLEAR     64  39  39 SW9       29.81S                  
Dickinson      CLEAR     53  34  48 S10       29.87F                  
Beach          FAIR      48  34  57 S9        29.89S                  
Bowman         FAIR      52  36  54 S7        29.91S                  
Crosby         FAIR      54  36  50 S12       29.79S                  
Glen Ullin     FAIR      50  36  57 CALM      29.88F                  
Hettinger      PTCLDY    52  35  52 SE3       29.92S                  
Tioga          FAIR      55  34  44 S5        29.84S                  
Watford City   FAIR      50  32  50 CALM      29.84S                  
Bismarck       CLEAR     55  45  68 SE7       29.91F                  
Grand Forks    CLEAR     53  39  59 S12       29.96F                  
Fargo          CLEAR     54  39  57 S13       30.01S                  
Buffalo SD       N/A     57  34  41 SW3       29.90R                  
Rapid City     CLEAR     51  34  52 E5        29.92F                  
Intl Falls     CLEAR     51  43  74 MISG      30.06F                  
Duluth         CLEAR     47  43  86 W8        30.12F                  
Minneapolis    CLEAR     53  48  83 CALM      30.14F                  
$$

Regional Reports...WY/CO/ID/WA/OR
  
CITY           SKY/WX    TMP DP  RH WIND       PRES   REMARKS
Buffalo WY     PTCLDY    62  23  22 NW10      30.05R                  
Cody           MOCLDY    64  28  25 W5        30.11R                  
Gillette       PTCLDY    59  20  22 W16       29.98R                  
Powell         FAIR      55  19  24 N10       30.07R                  
Sheridan       PTCLDY    48  33  56 CALM      29.99S                  
Yellowstone La   N/A     31  29  92 NW3       30.30S                  
Boise          CLEAR     59  42  53 W9        30.13R HAZE             
Couer d'Alene  MOCLDY    57  44  62 S8        30.17R                  
Idaho Falls    MOCLDY    58  32  37 S10       30.15R                  
Salmon         CLOUDY    56  37  49 CALM      30.18R                  
Spokane        MOCLDY    53  42  66 S9        30.15R                  
Seattle        MOCLDY    58  56  93 SE3       30.28S                  
Portland       CLEAR     61  55  81 N3        30.27S                  
$$

Other Reports
  
CITY           SKY/WX    TMP DP  RH WIND       PRES   REMARKS
Atlanta        CLEAR     56  47  71 NW12      29.98F                  
Anchorage      MOCLDY    43  30  60 E3        29.79F                  
Boston         MOCLDY    69  65  86 CALM      30.09F                  
Chicago        MOCLDY    55  42  61 NW12G23   29.98F                  
Fairbanks      FAIR      31  21  66 NE5       29.90F WCI  26          
Houston        CLEAR     61  52  72 N3        30.12S                  
Las Vegas NV   CLEAR     79  33  19 S5        29.94F                  
Phoenix AZ     PTCLDY    85  47  26 E6        29.89S                  
Salt Lake City PTCLDY    59  38  45 CALM      30.09S                  
San Diego      MOCLDY    73  61  65 CALM      29.96F                  
San Francisco  PTCLDY    56  52  86 NW12      29.98F                  
Washington Dul LGT RAIN  65  64  97 NW8       29.77S                  
$$

Regional Reports...Alberta
  
CITY           SKY/WX    TMP DP  RH WIND       PRES   REMARKS
Calgary        MOCLDY    57  28  33 W14G21    29.99R                  
Cardston         N/A     55  37  50 W6          N/A                   
Crowsnest Pass   N/A     46  37  71 W1          N/A                   
Del Bonita       N/A     45  37  76 W12         N/A                   
Edmonton       CLEAR     46  34  61 W6        29.92S                  
Fort McMurray  MOCLDY    52  37  58 W15       29.71R                  
High Level     CLEAR     41  34  75 W5        29.81R                  
Lethbridge     CLEAR     55  39  54 W13       30.00R                  
Medicine Hat   MOCLDY    55  43  62 VRB2      29.92R                  
Milk River       N/A     48  36  61 NW14        N/A                   
Onefour          N/A     59  34  38 NW20        N/A                   
Pincher Creek  CLEAR     55  39  54 W23G30    30.04R                  
Raymond          N/A     55  39  54 W16         N/A                   
Waterton Gate    N/A     57  36  44 SW18G26     N/A                   
Fort Smith NWT CLOUDY    46  45  93 NW8       29.61R                  
$$

Regional Reports...Saskatchewan
  
CITY           SKY/WX    TMP DP  RH WIND       PRES   REMARKS
Assiniboia       N/A     52  34  50 W8          N/A                   
Coronach         N/A     52  34  50 W8          N/A                   
Cypress Hills    N/A     55  36  47 NW9         N/A                   
Estevan        CLEAR     54  36  50 SW10      29.77S                  
Moose Jaw        N/A     52  36  54 W8          N/A                   
Prince Albert  MOCLDY    52  48  87 W5        29.77S                  
Regina         MOCLDY    50  37  62 W8        29.76R                  
Rockglen         N/A     57  32  38 W13         N/A                   
Swift Current  MOCLDY    54  37  54 W7        29.86R                  
Uranium City     N/A     48  46  93 W6          N/A                   
Val Marie        N/A     48  34  57 NE2         N/A                   
$$
  

Return to Home page


Western Regional Climate Center, wrcc@dri.edu